Orbital Elements at Epoch 2459200.5 (2020-Dec-17.0) TDB
Reference: JPL 29 (heliocentric ecliptic J2000)
Element | Value | Uncertainty (1-sigma) | Units |
e | .06791133539649907 | 1.8771e-08 | |
a | 2.913043992169679 | 1.4509e-08 | au |
q | 2.715215284592688 | 5.8328e-08 | au |
i | 2.403986621972844 | 8.6234e-07 | deg |
node | 152.2776027330784 | 2.5119e-05 | deg |
peri | 167.7061798737658 | 3.2462e-05 | deg |
M | 348.6391515853581 | 2.0762e-05 | deg |
tp | 2459257.809584030398 (2021-Feb-12.30958403) | 0.00010473 | TDB |
period | 1816.01316186504 4.97 | 1.3567e-05 3.714e-08 | d yr |
n | .1982364486996785 | 1.481e-09 | deg/d |
Q | 3.110872699746671 | 1.5494e-08 | au |
|
| | Orbit Determination Parameters
Additional Information
|